Time,TemperatureF,DewpointF,PressureIn,WindDirection,WindDirectionDegrees,WindSpeedMPH,WindSpeedGustMPH,Humidity,HourlyPrecipIn,Conditions,Clouds,dailyrainin,SoftwareType,DateUTC
2013-05-12 00:05:00,41.6,29.5,29.97,WNW,294,8.0,13.0,62,0.00,,,0.01,Wunderground v.1.13,2013-05-12 05:05:00,
2013-05-12 00:15:00,41.5,29.0,29.96,WNW,286,8.0,8.0,61,0.00,,,0.01,Wunderground v.1.13,2013-05-12 05:15:00,
2013-05-12 00:25:00,41.8,28.5,29.97,WNW,285,8.0,8.0,59,0.00,,,0.01,Wunderground v.1.13,2013-05-12 05:25:00,
2013-05-12 00:35:00,41.8,28.5,29.97,West,267,7.0,7.0,59,0.00,,,0.01,Wunderground v.1.13,2013-05-12 05:35:00,
2013-05-12 00:45:00,41.5,28.2,29.97,NW,310,8.0,20.0,59,0.00,,,0.01,Wunderground v.1.13,2013-05-12 05:45:00,
2013-05-12 00:50:00,41.3,27.6,29.97,NW,306,9.0,20.0,58,0.00,,,0.01,Wunderground v.1.13,2013-05-12 05:50:00,
2013-05-12 00:55:00,41.2,27.1,29.97,WNW,302,8.0,8.0,57,0.00,,,0.01,Wunderground v.1.13,2013-05-12 05:55:00,
2013-05-12 01:00:00,40.9,27.2,29.97,WNW,290,8.0,8.0,58,0.00,,,0.01,Wunderground v.1.13,2013-05-12 06:00:00,
2013-05-12 01:05:00,40.8,27.2,29.97,West,281,8.0,8.0,58,0.00,,,0.01,Wunderground v.1.13,2013-05-12 06:05:00,
2013-05-12 01:15:00,40.3,27.1,29.97,WNW,303,9.0,9.0,59,0.00,,,0.01,Wunderground v.1.13,2013-05-12 06:15:00,
2013-05-12 01:25:00,39.8,27.4,29.98,West,279,6.0,6.0,61,0.00,,,0.01,Wunderground v.1.13,2013-05-12 06:25:00,
2013-05-12 01:35:00,39.3,27.0,29.98,WNW,285,6.0,22.0,61,0.00,,,0.01,Wunderground v.1.13,2013-05-12 06:35:00,
2013-05-12 01:40:00,39.2,26.9,29.98,NW,321,6.0,22.0,61,0.00,,,0.01,Wunderground v.1.13,2013-05-12 06:40:00,
2013-05-12 01:50:00,38.9,27.0,29.98,WNW,290,6.0,6.0,62,0.00,,,0.01,Wunderground v.1.13,2013-05-12 06:50:00,
2013-05-12 01:55:00,38.9,26.6,29.98,WNW,290,6.0,22.0,61,0.00,,,0.01,Wunderground v.1.13,2013-05-12 06:55:00,
2013-05-12 02:00:00,38.8,26.5,29.98,WNW,288,7.0,7.0,61,0.00,,,0.01,Wunderground v.1.13,2013-05-12 07:00:00,
2013-05-12 02:05:00,38.6,26.3,29.98,WNW,301,7.0,21.0,61,0.00,,,0.01,Wunderground v.1.13,2013-05-12 07:05:00,
2013-05-12 02:15:00,38.5,26.6,29.98,NW,309,5.0,5.0,62,0.00,,,0.01,Wunderground v.1.13,2013-05-12 07:15:00,
2013-05-12 02:20:00,38.5,26.6,29.98,WNW,284,5.0,21.0,62,0.00,,,0.01,Wunderground v.1.13,2013-05-12 07:20:00,
2013-05-12 02:25:00,38.6,26.7,29.98,NW,306,6.0,6.0,62,0.00,,,0.01,Wunderground v.1.13,2013-05-12 07:25:00,
2013-05-12 02:35:00,38.9,26.6,29.98,WNW,284,7.0,7.0,61,0.00,,,0.01,Wunderground v.1.13,2013-05-12 07:35:00,
2013-05-12 02:40:00,39.1,26.8,29.98,WNW,288,7.0,7.0,61,0.00,,,0.01,Wunderground v.1.13,2013-05-12 07:40:00,
2013-05-12 02:45:00,39.2,26.9,29.98,NW,319,6.0,14.0,61,0.00,,,0.01,Wunderground v.1.13,2013-05-12 07:45:00,
2013-05-12 02:55:00,39.2,27.3,29.98,West,281,6.0,14.0,62,0.00,,,0.01,Wunderground v.1.13,2013-05-12 07:55:00,
2013-05-12 03:05:00,39.1,27.6,29.98,WNW,285,6.0,6.0,63,0.00,,,0.01,Wunderground v.1.13,2013-05-12 08:05:00,
2013-05-12 03:15:00,38.9,27.8,29.98,NW,314,5.0,14.0,64,0.00,,,0.01,Wunderground v.1.13,2013-05-12 08:15:00,
2013-05-12 03:25:00,38.9,28.5,29.98,West,272,5.0,5.0,66,0.00,,,0.01,Wunderground v.1.13,2013-05-12 08:25:00,
2013-05-12 03:30:00,38.8,28.4,29.98,WNW,282,5.0,14.0,66,0.00,,,0.01,Wunderground v.1.13,2013-05-12 08:30:00,
2013-05-12 03:40:00,38.3,27.9,29.98,NW,324,7.0,15.0,66,0.00,,,0.01,Wunderground v.1.13,2013-05-12 08:40:00,
2013-05-12 03:45:00,38.2,27.1,29.98,WNW,296,8.0,8.0,64,0.00,,,0.01,Wunderground v.1.13,2013-05-12 08:45:00,
2013-05-12 03:50:00,38.2,26.7,29.98,West,281,8.0,8.0,63,0.00,,,0.01,Wunderground v.1.13,2013-05-12 08:50:00,
2013-05-12 04:00:00,38.0,26.1,29.98,West,261,7.0,7.0,62,0.00,,,0.01,Wunderground v.1.13,2013-05-12 09:00:00,
2013-05-12 04:05:00,37.8,25.9,29.98,West,273,6.0,12.0,62,0.00,,,0.01,Wunderground v.1.13,2013-05-12 09:05:00,
2013-05-12 04:15:00,37.6,25.0,29.98,West,279,8.0,8.0,60,0.00,,,0.01,Wunderground v.1.13,2013-05-12 09:15:00,
2013-05-12 04:20:00,37.6,24.6,29.98,NW,313,8.0,12.0,59,0.00,,,0.01,Wunderground v.1.13,2013-05-12 09:20:00,
2013-05-12 04:30:00,37.3,23.9,29.99,NW,306,7.0,12.0,58,0.00,,,0.01,Wunderground v.1.13,2013-05-12 09:30:00,
2013-05-12 04:35:00,37.3,24.3,29.99,WNW,290,7.0,7.0,59,0.00,,,0.01,Wunderground v.1.13,2013-05-12 09:35:00,
2013-05-12 04:45:00,36.9,24.3,29.99,NW,304,7.0,7.0,60,0.00,,,0.01,Wunderground v.1.13,2013-05-12 09:45:00,
2013-05-12 04:55:00,36.8,24.2,29.99,WNW,286,7.0,7.0,60,0.00,,,0.01,Wunderground v.1.13,2013-05-12 09:55:00,
2013-05-12 05:00:00,36.6,24.4,29.99,WNW,286,6.0,20.0,61,0.00,,,0.01,Wunderground v.1.13,2013-05-12 10:00:00,
2013-05-12 05:05:00,36.5,24.7,29.99,NW,309,5.0,19.0,62,0.00,,,0.01,Wunderground v.1.13,2013-05-12 10:05:00,
2013-05-12 05:15:00,36.2,24.0,29.99,West,279,6.0,6.0,61,0.00,,,0.01,Wunderground v.1.13,2013-05-12 10:15:00,
2013-05-12 05:20:00,36.2,24.0,29.99,WNW,299,6.0,19.0,61,0.00,,,0.01,Wunderground v.1.13,2013-05-12 10:20:00,
2013-05-12 05:30:00,36.2,23.6,30.00,NW,324,6.0,19.0,60,0.00,,,0.01,Wunderground v.1.13,2013-05-12 10:30:00,
2013-05-12 05:40:00,36.0,23.0,30.00,WNW,296,6.0,6.0,59,0.00,,,0.01,Wunderground v.1.13,2013-05-12 10:40:00,
2013-05-12 05:50:00,35.9,23.4,30.00,NW,321,5.0,5.0,60,0.00,,,0.01,Wunderground v.1.13,2013-05-12 10:50:00,
2013-05-12 05:55:00,35.9,23.4,30.00,WNW,284,6.0,6.0,60,0.00,,,0.01,Wunderground v.1.13,2013-05-12 10:55:00,
2013-05-12 06:00:00,35.8,23.7,30.00,West,280,7.0,14.0,61,0.00,,,0.01,Wunderground v.1.13,2013-05-12 11:00:00,
2013-05-12 06:05:00,35.8,23.3,30.00,WNW,296,8.0,8.0,60,0.00,,,0.01,Wunderground v.1.13,2013-05-12 11:05:00,
2013-05-12 06:15:00,36.2,23.2,30.01,NW,323,9.0,18.0,59,0.00,,,0.00,Wunderground v.1.13,2013-05-12 11:15:00,
2013-05-12 06:20:00,36.2,23.2,30.01,WNW,295,9.0,9.0,59,0.00,,,0.00,Wunderground v.1.13,2013-05-12 11:20:00,
2013-05-12 06:30:00,36.2,23.6,30.01,WNW,296,8.0,18.0,60,0.00,,,0.00,Wunderground v.1.13,2013-05-12 11:30:00,
2013-05-12 06:35:00,36.3,25.3,30.01,NW,319,7.0,18.0,64,0.00,,,0.00,Wunderground v.1.13,2013-05-12 11:35:00,
2013-05-12 06:45:00,36.5,24.3,30.01,NNW,328,6.0,18.0,61,0.00,,,0.00,Wunderground v.1.13,2013-05-12 11:45:00,
2013-05-12 06:55:00,36.6,24.0,30.02,NW,306,6.0,18.0,60,0.00,,,0.00,Wunderground v.1.13,2013-05-12 11:55:00,
2013-05-12 07:00:00,36.8,23.8,30.02,NW,304,6.0,18.0,59,0.00,,,0.00,Wunderground v.1.13,2013-05-12 12:00:00,
2013-05-12 07:05:00,36.8,23.4,30.02,WNW,298,7.0,21.0,58,0.00,,,0.00,Wunderground v.1.13,2013-05-12 12:05:00,
2013-05-12 07:15:00,37.0,23.6,30.02,WNW,296,7.0,21.0,58,0.00,,,0.00,Wunderground v.1.13,2013-05-12 12:15:00,
2013-05-12 07:20:00,37.0,23.2,30.02,WNW,292,8.0,8.0,57,0.00,,,0.00,Wunderground v.1.13,2013-05-12 12:20:00,
2013-05-12 07:25:00,37.2,23.4,30.03,NW,304,8.0,8.0,57,0.00,,,0.00,Wunderground v.1.13,2013-05-12 12:25:00,
2013-05-12 07:35:00,37.3,23.9,30.03,NW,311,7.0,16.0,58,0.00,,,0.00,Wunderground v.1.13,2013-05-12 12:35:00,
2013-05-12 07:45:00,37.8,23.9,30.03,West,278,7.0,16.0,57,0.00,,,0.00,Wunderground v.1.13,2013-05-12 12:45:00,
2013-05-12 07:55:00,37.9,23.2,30.03,NW,310,8.0,18.0,55,0.00,,,0.00,Wunderground v.1.13,2013-05-12 12:55:00,
2013-05-12 08:00:00,38.0,23.7,30.03,WNW,285,8.0,8.0,56,0.00,,,0.00,Wunderground v.1.13,2013-05-12 13:00:00,
2013-05-12 08:05:00,38.3,23.5,30.03,West,267,8.0,18.0,55,0.00,,,0.00,Wunderground v.1.13,2013-05-12 13:05:00,
2013-05-12 08:15:00,38.8,24.4,30.03,WSW,251,9.0,18.0,56,0.00,,,0.00,Wunderground v.1.13,2013-05-12 13:15:00,
2013-05-12 08:25:00,39.3,23.6,30.03,WNW,292,9.0,18.0,53,0.00,,,0.00,Wunderground v.1.13,2013-05-12 13:25:00,
2013-05-12 08:30:00,39.3,24.0,30.03,NW,323,9.0,9.0,54,0.00,,,0.00,Wunderground v.1.13,2013-05-12 13:30:00,
2013-05-12 08:35:00,39.5,24.2,30.03,NW,315,9.0,22.0,54,0.00,,,0.00,Wunderground v.1.13,2013-05-12 13:35:00,
2013-05-12 08:45:00,40.1,24.3,30.03,WNW,298,8.0,8.0,53,0.00,,,0.00,Wunderground v.1.13,2013-05-12 13:45:00,
2013-05-12 08:55:00,40.3,24.5,30.04,WNW,302,8.0,8.0,53,0.00,,,0.00,Wunderground v.1.13,2013-05-12 13:55:00,
2013-05-12 09:00:00,41.1,25.7,30.04,NW,311,8.0,22.0,54,0.00,,,0.00,Wunderground v.1.13,2013-05-12 14:00:00,
2013-05-12 09:05:00,41.3,24.0,30.04,NW,304,6.0,21.0,50,0.00,,,0.00,Wunderground v.1.13,2013-05-12 14:05:00,
2013-05-12 09:15:00,41.5,25.2,30.04,NW,324,7.0,21.0,52,0.00,,,0.00,Wunderground v.1.13,2013-05-12 14:15:00,
2013-05-12 09:25:00,41.8,24.5,30.04,NW,320,8.0,21.0,50,0.00,,,0.00,Wunderground v.1.13,2013-05-12 14:25:00,
2013-05-12 09:30:00,41.3,24.5,30.04,WNW,301,9.0,9.0,51,0.00,,,0.00,Wunderground v.1.13,2013-05-12 14:30:00,
2013-05-12 09:40:00,41.9,22.1,30.04,NW,309,9.0,21.0,45,0.00,,,0.00,Wunderground v.1.13,2013-05-12 14:40:00,
2013-05-12 09:45:00,41.9,24.6,30.04,WNW,282,9.0,9.0,50,0.00,,,0.00,Wunderground v.1.13,2013-05-12 14:45:00,
2013-05-12 09:50:00,41.9,23.6,30.04,West,277,10.0,10.0,48,0.00,,,0.00,Wunderground v.1.13,2013-05-12 14:50:00,
2013-05-12 09:55:00,42.3,24.0,30.04,WNW,292,9.0,21.0,48,0.00,,,0.00,Wunderground v.1.13,2013-05-12 14:55:00,
2013-05-12 10:00:00,42.8,24.4,30.04,WNW,297,8.0,21.0,48,0.00,,,0.00,Wunderground v.1.13,2013-05-12 15:00:00,
2013-05-12 10:05:00,42.9,24.5,30.04,WNW,287,9.0,9.0,48,0.00,,,0.00,Wunderground v.1.13,2013-05-12 15:05:00,
2013-05-12 10:15:00,43.1,23.7,30.04,NW,306,9.0,9.0,46,0.00,,,0.00,Wunderground v.1.13,2013-05-12 15:15:00,
2013-05-12 10:20:00,42.8,23.9,30.04,WNW,284,10.0,10.0,47,0.00,,,0.00,Wunderground v.1.13,2013-05-12 15:20:00,
2013-05-12 10:30:00,43.3,23.9,30.05,NW,317,9.0,20.0,46,0.00,,,0.00,Wunderground v.1.13,2013-05-12 15:30:00,
2013-05-12 10:35:00,43.3,24.4,30.05,WNW,291,8.0,8.0,47,0.00,,,0.00,Wunderground v.1.13,2013-05-12 15:35:00,
2013-05-12 10:45:00,43.6,23.1,30.05,West,276,8.0,8.0,44,0.00,,,0.00,Wunderground v.1.13,2013-05-12 15:45:00,
2013-05-12 10:50:00,43.8,24.3,30.05,WNW,284,9.0,23.0,46,0.00,,,0.00,Wunderground v.1.13,2013-05-12 15:50:00,
2013-05-12 10:55:00,44.1,23.6,30.05,WNW,288,9.0,9.0,44,0.00,,,0.00,Wunderground v.1.13,2013-05-12 15:55:00,
2013-05-12 11:05:00,45.1,25.5,30.05,North,355,8.0,21.0,46,0.00,,,0.00,Wunderground v.1.13,2013-05-12 16:05:00,
2013-05-12 11:15:00,45.4,26.3,30.04,NW,313,7.0,7.0,47,0.00,,,0.00,Wunderground v.1.13,2013-05-12 16:15:00,
2013-05-12 11:20:00,45.5,25.4,30.04,WNW,288,7.0,7.0,45,0.00,,,0.00,Wunderground v.1.13,2013-05-12 16:20:00,
2013-05-12 11:30:00,45.4,27.3,30.04,West,271,9.0,9.0,49,0.00,,,0.00,Wunderground v.1.13,2013-05-12 16:30:00,
2013-05-12 11:40:00,46.1,25.4,30.04,NE,47,8.0,8.0,44,0.00,,,0.00,Wunderground v.1.13,2013-05-12 16:40:00,
2013-05-12 11:45:00,46.1,24.8,30.04,NW,324,8.0,8.0,43,0.00,,,0.00,Wunderground v.1.13,2013-05-12 16:45:00,
2013-05-12 11:50:00,46.0,24.2,30.04,WNW,287,9.0,9.0,42,0.00,,,0.00,Wunderground v.1.13,2013-05-12 16:50:00,
2013-05-12 12:00:00,46.4,26.2,30.04,WNW,293,8.0,8.0,45,0.00,,,0.00,Wunderground v.1.13,2013-05-12 17:00:00,
2013-05-12 12:05:00,47.3,25.9,30.04,North,355,6.0,19.0,43,0.00,,,0.00,Wunderground v.1.13,2013-05-12 17:05:00,
2013-05-12 12:15:00,47.0,24.5,30.04,NW,309,7.0,19.0,41,0.00,,,0.00,Wunderground v.1.13,2013-05-12 17:15:00,
2013-05-12 12:25:00,47.0,25.6,30.04,West,260,8.0,8.0,43,0.00,,,0.00,Wunderground v.1.13,2013-05-12 17:25:00,
2013-05-12 12:35:00,47.0,24.5,30.04,NNW,327,8.0,8.0,41,0.00,,,0.00,Wunderground v.1.13,2013-05-12 17:35:00,
2013-05-12 12:45:00,47.6,25.0,30.03,NNW,348,8.0,8.0,41,0.00,,,0.00,Wunderground v.1.13,2013-05-12 17:45:00,
2013-05-12 12:55:00,47.9,24.1,30.04,NW,317,7.0,7.0,39,0.00,,,0.00,Wunderground v.1.13,2013-05-12 17:55:00,
2013-05-12 13:00:00,47.3,23.6,30.04,NW,304,7.0,22.0,39,0.00,,,0.00,Wunderground v.1.13,2013-05-12 18:00:00,
2013-05-12 13:05:00,47.4,24.3,30.04,NNW,336,7.0,7.0,40,0.00,,,0.00,Wunderground v.1.13,2013-05-12 18:05:00,
2013-05-12 13:15:00,48.2,25.0,30.04,WNW,302,9.0,18.0,40,0.00,,,0.00,Wunderground v.1.13,2013-05-12 18:15:00,
2013-05-12 13:25:00,48.6,24.7,30.03,WNW,294,8.0,18.0,39,0.00,,,0.00,Wunderground v.1.13,2013-05-12 18:25:00,
2013-05-12 13:30:00,49.2,24.0,30.03,NW,325,8.0,18.0,37,0.00,,,0.00,Wunderground v.1.13,2013-05-12 18:30:00,
2013-05-12 13:40:00,49.4,23.5,30.03,West,259,9.0,9.0,36,0.00,,,0.00,Wunderground v.1.13,2013-05-12 18:40:00,
2013-05-12 13:50:00,49.5,23.6,30.03,NW,312,8.0,14.0,36,0.00,,,0.00,Wunderground v.1.13,2013-05-12 18:50:00,
2013-05-12 13:55:00,49.8,23.2,30.03,NW,322,7.0,14.0,35,0.00,,,0.00,Wunderground v.1.13,2013-05-12 18:55:00,
2013-05-12 14:00:00,49.9,24.0,30.03,West,263,8.0,8.0,36,0.00,,,0.00,Wunderground v.1.13,2013-05-12 19:00:00,
2013-05-12 14:05:00,49.8,23.2,30.03,West,281,8.0,19.0,35,0.00,,,0.00,Wunderground v.1.13,2013-05-12 19:05:00,
2013-05-12 14:15:00,49.9,23.3,30.02,West,278,8.0,19.0,35,0.00,,,0.00,Wunderground v.1.13,2013-05-12 19:15:00,
2013-05-12 14:20:00,49.8,23.2,30.02,NNW,333,7.0,7.0,35,0.00,,,0.00,Wunderground v.1.13,2013-05-12 19:20:00,
2013-05-12 14:30:00,50.1,22.8,30.02,North,355,7.0,19.0,34,0.00,,,0.00,Wunderground v.1.13,2013-05-12 19:30:00,
2013-05-12 14:35:00,50.4,23.7,30.02,NW,321,6.0,20.0,35,0.00,,,0.00,Wunderground v.1.13,2013-05-12 19:35:00,
2013-05-12 14:45:00,51.3,23.1,30.01,WNW,287,7.0,7.0,33,0.00,,,0.00,Wunderground v.1.13,2013-05-12 19:45:00,
2013-05-12 14:55:00,51.1,24.4,30.01,NW,317,7.0,20.0,35,0.00,,,0.00,Wunderground v.1.13,2013-05-12 19:55:00,
2013-05-12 15:00:00,51.4,22.5,30.01,West,279,8.0,8.0,32,0.00,,,0.00,Wunderground v.1.13,2013-05-12 20:00:00,
2013-05-12 15:05:00,51.7,22.0,30.01,West,277,8.0,8.0,31,0.00,,,0.00,Wunderground v.1.13,2013-05-12 20:05:00,
2013-05-12 15:15:00,52.6,23.5,30.01,WNW,283,7.0,18.0,32,0.00,,,0.00,Wunderground v.1.13,2013-05-12 20:15:00,
2013-05-12 15:20:00,52.2,23.9,30.01,WNW,286,7.0,18.0,33,0.00,,,0.00,Wunderground v.1.13,2013-05-12 20:20:00,
2013-05-12 15:30:00,51.9,19.8,30.01,WSW,253,8.0,18.0,28,0.00,,,0.00,Wunderground v.1.13,2013-05-12 20:30:00,
2013-05-12 15:35:00,51.3,20.9,30.01,WNW,295,9.0,9.0,30,0.00,,,0.00,Wunderground v.1.13,2013-05-12 20:35:00,
2013-05-12 15:45:00,51.9,21.4,30.01,WNW,292,9.0,16.0,30,0.00,,,0.00,Wunderground v.1.13,2013-05-12 20:45:00,
2013-05-12 15:55:00,51.6,20.3,30.00,WNW,286,8.0,8.0,29,0.00,,,0.00,Wunderground v.1.13,2013-05-12 20:55:00,
2013-05-12 16:00:00,52.2,22.4,30.00,WNW,302,7.0,16.0,31,0.00,,,0.00,Wunderground v.1.13,2013-05-12 21:00:00,
2013-05-12 16:05:00,52.9,23.8,30.00,WSW,254,7.0,15.0,32,0.00,,,0.00,Wunderground v.1.13,2013-05-12 21:05:00,
2013-05-12 16:15:00,52.5,21.1,30.00,NW,309,10.0,10.0,29,0.00,,,0.00,Wunderground v.1.13,2013-05-12 21:15:00,
2013-05-12 16:25:00,52.6,21.2,30.00,WNW,298,9.0,9.0,29,0.00,,,0.00,Wunderground v.1.13,2013-05-12 21:25:00,
2013-05-12 16:30:00,52.9,21.5,30.00,WNW,283,9.0,15.0,29,0.00,,,0.00,Wunderground v.1.13,2013-05-12 21:30:00,
2013-05-12 16:35:00,53.1,21.6,30.00,West,281,8.0,21.0,29,0.00,,,0.00,Wunderground v.1.13,2013-05-12 21:35:00,
2013-05-12 16:45:00,53.2,20.0,29.99,NNW,329,9.0,21.0,27,0.00,,,0.00,Wunderground v.1.13,2013-05-12 21:45:00,
2013-05-12 16:50:00,52.5,21.1,29.99,NW,309,8.0,8.0,29,0.00,,,0.00,Wunderground v.1.13,2013-05-12 21:50:00,
2013-05-12 17:00:00,51.9,20.6,30.00,NNW,337,7.0,7.0,29,0.00,,,0.00,Wunderground v.1.13,2013-05-12 22:00:00,
2013-05-12 17:05:00,52.2,22.4,30.00,WNW,292,6.0,6.0,31,0.00,,,0.00,Wunderground v.1.13,2013-05-12 22:05:00,
2013-05-12 17:15:00,51.9,21.4,30.00,West,276,6.0,6.0,30,0.00,,,0.00,Wunderground v.1.13,2013-05-12 22:15:00,
2013-05-12 17:20:00,52.3,20.9,30.00,NW,315,6.0,22.0,29,0.00,,,0.00,Wunderground v.1.13,2013-05-12 22:20:00,
2013-05-12 17:25:00,52.6,21.2,29.99,NW,306,7.0,22.0,29,0.00,,,0.00,Wunderground v.1.13,2013-05-12 22:25:00,
2013-05-12 17:35:00,52.6,20.4,29.99,NNW,336,8.0,8.0,28,0.00,,,0.00,Wunderground v.1.13,2013-05-12 22:35:00,
2013-05-12 17:40:00,52.9,19.8,29.99,West,271,8.0,20.0,27,0.00,,,0.00,Wunderground v.1.13,2013-05-12 22:40:00,
2013-05-12 17:50:00,52.8,20.5,29.99,WNW,292,8.0,8.0,28,0.00,,,0.00,Wunderground v.1.13,2013-05-12 22:50:00,
2013-05-12 18:00:00,52.8,20.5,29.99,West,271,6.0,6.0,28,0.00,,,0.00,Wunderground v.1.13,2013-05-12 23:00:00,
2013-05-12 18:05:00,52.9,19.8,29.99,West,269,5.0,16.0,27,0.00,,,0.00,Wunderground v.1.13,2013-05-12 23:05:00,
2013-05-12 18:15:00,52.9,20.6,29.99,West,271,5.0,16.0,28,0.00,,,0.00,Wunderground v.1.13,2013-05-12 23:15:00,
2013-05-12 18:25:00,52.9,19.8,29.99,WNW,300,8.0,8.0,27,0.00,,,0.00,Wunderground v.1.13,2013-05-12 23:25:00,
2013-05-12 18:35:00,53.2,20.9,29.99,NW,306,7.0,7.0,28,0.00,,,0.00,Wunderground v.1.13,2013-05-12 23:35:00,
2013-05-12 18:45:00,53.3,21.0,29.99,West,277,7.0,7.0,28,0.00,,,0.00,Wunderground v.1.13,2013-05-12 23:45:00,
2013-05-12 18:50:00,53.2,20.0,29.99,NW,319,7.0,16.0,27,0.00,,,0.00,Wunderground v.1.13,2013-05-12 23:50:00,
2013-05-12 19:00:00,52.9,20.6,29.98,WNW,300,7.0,7.0,28,0.00,,,0.00,Wunderground v.1.13,2013-05-13 00:00:00,
2013-05-12 19:05:00,52.6,19.5,29.98,West,281,7.0,7.0,27,0.00,,,0.00,Wunderground v.1.13,2013-05-13 00:05:00,
2013-05-12 19:15:00,52.2,20.9,29.99,West,267,4.0,4.0,29,0.00,,,0.00,Wunderground v.1.13,2013-05-13 00:15:00,
2013-05-12 19:20:00,51.7,22.0,29.99,West,267,3.0,3.0,31,0.00,,,0.00,Wunderground v.1.13,2013-05-13 00:20:00,
2013-05-12 19:30:00,51.1,20.7,29.99,West,274,4.0,13.0,30,0.00,,,0.00,Wunderground v.1.13,2013-05-13 00:30:00,
2013-05-12 19:35:00,51.0,21.4,29.99,WNW,284,5.0,5.0,31,0.00,,,0.00,Wunderground v.1.13,2013-05-13 00:35:00,
2013-05-12 19:45:00,50.7,21.1,29.99,WNW,302,4.0,4.0,31,0.00,,,0.00,Wunderground v.1.13,2013-05-13 00:45:00,
2013-05-12 19:50:00,50.4,20.9,29.99,WNW,282,4.0,16.0,31,0.00,,,0.00,Wunderground v.1.13,2013-05-13 00:50:00,
2013-05-12 20:00:00,49.9,22.6,29.99,WNW,282,2.0,2.0,34,0.00,,,0.00,Wunderground v.1.13,2013-05-13 01:00:00,
2013-05-12 20:05:00,49.8,22.5,29.99,WNW,282,1.0,1.0,34,0.00,,,0.00,Wunderground v.1.13,2013-05-13 01:05:00,
2013-05-12 20:15:00,49.4,22.9,29.99,WNW,282,0.0,11.0,35,0.00,,,0.00,Wunderground v.1.13,2013-05-13 01:15:00,
2013-05-12 20:25:00,49.1,23.3,29.99,WNW,282,0.0,11.0,36,0.00,,,0.00,Wunderground v.1.13,2013-05-13 01:25:00,
2013-05-12 20:30:00,48.6,24.1,29.99,WNW,282,0.0,11.0,38,0.00,,,0.00,Wunderground v.1.13,2013-05-13 01:30:00,
2013-05-12 20:35:00,48.2,25.0,29.99,WNW,282,0.0,10.0,40,0.00,,,0.00,Wunderground v.1.13,2013-05-13 01:35:00,
2013-05-12 20:45:00,47.4,26.0,30.00,WNW,282,0.0,10.0,43,0.00,,,0.00,Wunderground v.1.13,2013-05-13 01:45:00,
2013-05-12 20:50:00,47.0,25.6,30.00,WNW,282,0.0,10.0,43,0.00,,,0.00,Wunderground v.1.13,2013-05-13 01:50:00,
2013-05-12 21:00:00,46.1,26.4,30.01,WNW,282,0.0,10.0,46,0.00,,,0.00,Wunderground v.1.13,2013-05-13 02:00:00,
2013-05-12 21:05:00,45.8,26.7,30.01,WNW,282,0.0,2.0,47,0.00,,,0.00,Wunderground v.1.13,2013-05-13 02:05:00,
2013-05-12 21:15:00,44.9,26.9,30.01,WNW,282,0.0,2.0,49,0.00,,,0.00,Wunderground v.1.13,2013-05-13 02:15:00,
2013-05-12 21:25:00,44.1,27.6,30.02,WNW,282,0.0,2.0,52,0.00,,,0.00,Wunderground v.1.13,2013-05-13 02:25:00,
2013-05-12 21:30:00,43.6,27.6,30.02,WNW,282,0.0,2.0,53,0.00,,,0.00,Wunderground v.1.13,2013-05-13 02:30:00,
2013-05-12 21:35:00,43.2,28.1,30.02,WNW,282,0.0,0.0,55,0.00,,,0.00,Wunderground v.1.13,2013-05-13 02:35:00,
2013-05-12 21:45:00,42.6,28.4,30.02,WNW,282,0.0,0.0,57,0.00,,,0.00,Wunderground v.1.13,2013-05-13 02:45:00,
2013-05-12 21:55:00,42.1,28.4,30.03,WNW,282,0.0,0.0,58,0.00,,,0.00,Wunderground v.1.13,2013-05-13 02:55:00,
2013-05-12 22:05:00,41.6,28.7,30.03,WNW,282,0.0,0.0,60,0.00,,,0.00,Wunderground v.1.13,2013-05-13 03:05:00,
2013-05-12 22:15:00,41.1,28.3,30.02,WNW,282,0.0,0.0,60,0.00,,,0.00,Wunderground v.1.13,2013-05-13 03:15:00,
2013-05-12 22:20:00,40.8,27.6,30.02,WNW,282,0.0,0.0,59,0.00,,,0.00,Wunderground v.1.13,2013-05-13 03:20:00,
2013-05-12 22:30:00,40.5,27.7,30.02,WNW,282,0.0,0.0,60,0.00,,,0.00,Wunderground v.1.13,2013-05-13 03:30:00,
2013-05-12 22:40:00,40.2,27.8,30.02,WNW,282,0.0,0.0,61,0.00,,,0.00,Wunderground v.1.13,2013-05-13 03:40:00,
2013-05-12 22:45:00,40.1,28.1,30.02,WNW,282,0.0,0.0,62,0.00,,,0.00,Wunderground v.1.13,2013-05-13 03:45:00,
2013-05-12 22:50:00,39.8,28.2,30.02,WNW,282,0.0,0.0,63,0.00,,,0.00,Wunderground v.1.13,2013-05-13 03:50:00,
2013-05-12 23:00:00,39.6,28.4,30.02,WNW,282,0.0,0.0,64,0.00,,,0.00,Wunderground v.1.13,2013-05-13 04:00:00,
2013-05-12 23:05:00,39.5,28.3,30.02,WNW,282,0.0,0.0,64,0.00,,,0.00,Wunderground v.1.13,2013-05-13 04:05:00,
2013-05-12 23:10:00,39.3,28.5,30.02,WNW,282,0.0,0.0,65,0.00,,,0.00,Wunderground v.1.13,2013-05-13 04:10:00,
2013-05-12 23:15:00,39.2,28.4,30.02,WNW,282,0.0,0.0,65,0.00,,,0.00,Wunderground v.1.13,2013-05-13 04:15:00,
2013-05-12 23:25:00,38.9,28.5,30.02,WNW,282,0.0,0.0,66,0.00,,,0.00,Wunderground v.1.13,2013-05-13 04:25:00,
2013-05-12 23:30:00,39.1,28.7,30.02,North,5,1.0,1.0,66,0.00,,,0.00,Wunderground v.1.13,2013-05-13 04:30:00,
2013-05-12 23:35:00,39.8,28.2,30.02,North,5,1.0,3.0,63,0.00,,,0.00,Wunderground v.1.13,2013-05-13 04:35:00,
2013-05-12 23:45:00,40.2,29.0,30.03,NE,55,1.0,1.0,64,0.00,,,0.00,Wunderground v.1.13,2013-05-13 04:45:00,
2013-05-12 23:50:00,39.9,29.1,30.03,NE,46,1.0,1.0,65,0.00,,,0.00,Wunderground v.1.13,2013-05-13 04:50:00,